When you browse on this site, cookies collect data to enhance your experience and personalize the content and advertising you see.
Visit our Privacy Policy to learn more. By continuing to use the site, you agree to this use of cookies and data.
  • In United Kingdom
  • List of Countries
  • For 7 days
  • Water Temperature
  • Satellite Maps
  • Weather Map
  • Weather Widgets
  • user-avatar
    Login

    Hourly Weather Mayrhofen

    Today, 24 April, Wednesday

    Time Temperature Precipitation Wind Pressure Humidity
    00:00 +1°C° 0 mm 4 mps 609 mmHg 90%
    01:00 +1°C° 0 mm 4 mps 609 mmHg 91%
    02:00 +1°C° 0 mm 4 mps 609 mmHg 91%
    03:00 +1°C° 0 mm 4 mps 609 mmHg 92%
    04:00 +1°C° 0 mm 4 mps 610 mmHg 92%
    05:00 +1°C° 0 mm 4 mps 610 mmHg 91%
    06:00 +3°C° 0 mm 4 mps 610 mmHg 90%
    07:00 +3°C° 0 mm 4 mps 611 mmHg 89%
    08:00 +4°C° 0 mm 4 mps 611 mmHg 86%
    09:00 +5°C° 0 mm 4 mps 612 mmHg 83%
    10:00 +6°C° 0 mm 4 mps 612 mmHg 81%
    11:00 +7°C° 0 mm 4 mps 613 mmHg 78%
    12:00 +8°C° 0 mm 4 mps 613 mmHg 76%
    13:00 +8°C° 0 mm 4 mps 613 mmHg 73%
    14:00 +8°C° 0 mm 5 mps 613 mmHg 73%
    15:00 +8°C° 0 mm 5 mps 613 mmHg 73%
    16:00 +8°C° 0 mm 5 mps 613 mmHg 73%
    17:00 +6°C° 0 mm 5 mps 613 mmHg 77%
    18:00 +5°C° 0 mm 4 mps 612 mmHg 82%
    19:00 +4°C° 0 mm 4 mps 612 mmHg 86%
    20:00 +4°C° 0 mm 4 mps 613 mmHg 87%
    21:00 +3°C° 0 mm 4 mps 613 mmHg 89%
    22:00 +3°C° 0 mm 4 mps 614 mmHg 90%
    23:00 +3°C° 0 mm 4 mps 614 mmHg 90%

    Tomorrow, 25 April, Thursday

    Time Temperature Precipitation Wind Pressure Humidity
    00:00 +3°C° 0 mm 4 mps 615 mmHg 89%
    01:00 +2°C° 0 mm 3 mps 615 mmHg 89%
    02:00 +1°C° 0 mm 4 mps 615 mmHg 89%
    03:00 +1°C° 0 mm 4 mps 615 mmHg 89%
    04:00 0°C° 0 mm 4 mps 615 mmHg 89%
    05:00 +1°C° 0 mm 4 mps 615 mmHg 87%
    06:00 +1°C° 0 mm 4 mps 615 mmHg 84%
    07:00 +2°C° 0 mm 5 mps 615 mmHg 82%
    08:00 +3°C° 0 mm 5 mps 616 mmHg 76%
    09:00 +5°C° 0 mm 5 mps 616 mmHg 71%
    10:00 +7°C° 0 mm 5 mps 616 mmHg 65%
    11:00 +8°C° 0 mm 5 mps 617 mmHg 61%
    12:00 +9°C° 0 mm 5 mps 617 mmHg 58%
    13:00 +9°C° 0 mm 5 mps 617 mmHg 55%
    14:00 +9°C° 0 mm 5 mps 617 mmHg 56%
    15:00 +9°C° 0 mm 5 mps 617 mmHg 56%
    16:00 +10°C° 0 mm 4 mps 616 mmHg 57%
    17:00 +8°C° 0 mm 4 mps 616 mmHg 64%
    18:00 +6°C° 0 mm 4 mps 615 mmHg 71%
    19:00 +5°C° 0 mm 4 mps 615 mmHg 77%
    20:00 +4°C° 0 mm 4 mps 615 mmHg 81%
    21:00 +4°C° 0 mm 4 mps 615 mmHg 85%
    22:00 +3°C° 0 mm 4 mps 615 mmHg 89%
    23:00 +3°C° 0 mm 4 mps 615 mmHg 89%

    Day after tomorrow, 26 April, Friday

    Time Temperature Precipitation Wind Pressure Humidity
    00:00 +3°C° 0 mm 4 mps 615 mmHg 89%
    01:00 +3°C° 0 mm 4 mps 615 mmHg 89%
    02:00 +1°C° 0 mm 4 mps 615 mmHg 89%
    03:00 +1°C° 0 mm 4 mps 615 mmHg 89%
    04:00 +1°C° 0 mm 4 mps 615 mmHg 89%
    05:00 +1°C° 0 mm 4 mps 615 mmHg 87%
    06:00 +3°C° 0 mm 4 mps 614 mmHg 85%
    07:00 +4°C° 0 mm 4 mps 614 mmHg 82%
    08:00 +5°C° 0 mm 4 mps 615 mmHg 76%
    09:00 +7°C° 0 mm 4 mps 615 mmHg 69%
    10:00 +8°C° 0 mm 5 mps 616 mmHg 62%
    11:00 +10°C° 0.1 mm 4 mps 616 mmHg 62%
    12:00 +10°C° 0.1 mm 4 mps 616 mmHg 61%
    13:00 +11°C° 0.1 mm 4 mps 616 mmHg 60%
    14:00 +9°C° 1.2 mm 3 mps 616 mmHg 69%
    15:00 +7°C° 1.2 mm 3 mps 615 mmHg 79%
    16:00 +5°C° 1.2 mm 2 mps 615 mmHg 88%
    17:00 +4°C° 4.1 mm 2 mps 614 mmHg 90%
    18:00 +1°C° 4.1 mm 3 mps 614 mmHg 92%
    19:00 0°C° 4.1 mm 3 mps 614 mmHg 94%
    20:00 -1°C° 1.5 mm 3 mps 614 mmHg 95%
    21:00 -2°C° 1.5 mm 2 mps 614 mmHg 95%
    22:00 -3°C° 1.5 mm 2 mps 615 mmHg 95%
    23:00 -3°C° 0.6 mm 2 mps 615 mmHg 95%

    27 April, Saturday

    Time Temperature Precipitation Wind Pressure Humidity
    00:00 -4°C° 0.6 mm 3 mps 615 mmHg 95%
    01:00 -4°C° 0.6 mm 3 mps 615 mmHg 96%
    02:00 -4°C° 0.5 mm 3 mps 615 mmHg 95%
    03:00 -4°C° 0.5 mm 2 mps 615 mmHg 94%
    04:00 -4°C° 0.5 mm 2 mps 615 mmHg 94%
    05:00 -3°C° 0.1 mm 2 mps 615 mmHg 92%
    06:00 -3°C° 0.1 mm 2 mps 615 mmHg 89%
    07:00 -3°C° 0.1 mm 2 mps 615 mmHg 87%
    08:00 +1°C° 0 mm 1 mps 615 mmHg 86%
    09:00 +3°C° 0 mm 1 mps 616 mmHg 85%
    10:00 +4°C° 0 mm 1 mps 616 mmHg 84%
    11:00 +5°C° 0.1 mm 1 mps 616 mmHg 83%
    12:00 +5°C° 0.1 mm 1 mps 616 mmHg 82%
    13:00 +5°C° 0.1 mm 1 mps 616 mmHg 81%
    14:00 +5°C° 0.6 mm 1 mps 615 mmHg 84%
    15:00 +4°C° 0.6 mm 2 mps 615 mmHg 87%
    16:00 +3°C° 0.6 mm 2 mps 615 mmHg 89%
    17:00 +3°C° 1 mm 2 mps 614 mmHg 91%
    18:00 +2°C° 1 mm 2 mps 614 mmHg 93%
    19:00 +1°C° 1 mm 2 mps 614 mmHg 95%
    20:00 +1°C° 1.4 mm 2 mps 614 mmHg 95%
    21:00 -1°C° 1.4 mm 2 mps 615 mmHg 96%
    22:00 -1°C° 1.4 mm 2 mps 615 mmHg 96%
    23:00 -2°C° 1.1 mm 2 mps 615 mmHg 96%

    28 April, Sunday

    Time Temperature Precipitation Wind Pressure Humidity
    00:00 -2°C° 1.1 mm 2 mps 614 mmHg 95%
    01:00 -3°C° 1.1 mm 2 mps 614 mmHg 95%
    02:00 -3°C° 0.5 mm 2 mps 614 mmHg 95%
    03:00 -4°C° 0.5 mm 2 mps 613 mmHg 95%
    04:00 -4°C° 0.5 mm 2 mps 613 mmHg 95%
    05:00 -4°C° 0.4 mm 2 mps 613 mmHg 94%
    06:00 -3°C° 0.4 mm 2 mps 613 mmHg 93%
    07:00 -3°C° 0.4 mm 2 mps 613 mmHg 92%
    08:00 -2°C° 0.6 mm 2 mps 613 mmHg 92%
    09:00 -2°C° 0.6 mm 2 mps 614 mmHg 93%
    10:00 -1°C° 0.6 mm 2 mps 614 mmHg 93%
    11:00 -1°C° 0.7 mm 3 mps 614 mmHg 93%
    12:00 -1°C° 0.7 mm 3 mps 614 mmHg 94%
    13:00 0°C° 0.7 mm 3 mps 614 mmHg 95%
    14:00 0°C° 0.5 mm 3 mps 614 mmHg 95%
    15:00 0°C° 0.5 mm 3 mps 614 mmHg 95%
    16:00 0°C° 0.5 mm 3 mps 614 mmHg 95%
    17:00 0°C° 0.2 mm 3 mps 614 mmHg 95%
    18:00 -1°C° 0.2 mm 2 mps 614 mmHg 96%
    19:00 -1°C° 0.2 mm 2 mps 614 mmHg 96%
    20:00 -1°C° 0.2 mm 2 mps 614 mmHg 96%
    21:00 -2°C° 0.2 mm 2 mps 615 mmHg 97%
    22:00 -2°C° 0.2 mm 2 mps 615 mmHg 97%
    23:00 -2°C° 0.2 mm 2 mps 615 mmHg 96%

    29 April, Monday

    Time Temperature Precipitation Wind Pressure Humidity
    00:00 -2°C° 0.2 mm 2 mps 615 mmHg 96%
    01:00 -2°C° 0.2 mm 2 mps 615 mmHg 96%
    02:00 -2°C° 0 mm 2 mps 615 mmHg 96%
    03:00 -2°C° 0 mm 2 mps 615 mmHg 96%
    04:00 -2°C° 0 mm 2 mps 614 mmHg 96%
    05:00 -2°C° 0.1 mm 2 mps 615 mmHg 96%
    06:00 -1°C° 0.1 mm 2 mps 615 mmHg 95%
    07:00 -1°C° 0.1 mm 2 mps 615 mmHg 95%
    08:00 +1°C° 0.1 mm 2 mps 615 mmHg 95%
    09:00 +2°C° 0.1 mm 2 mps 615 mmHg 94%
    10:00 +2°C° 0.1 mm 2 mps 615 mmHg 94%
    11:00 +3°C° 0.1 mm 2 mps 615 mmHg 93%
    12:00 +3°C° 0.1 mm 2 mps 615 mmHg 91%
    13:00 +4°C° 0.1 mm 2 mps 615 mmHg 90%
    14:00 +4°C° 0.1 mm 2 mps 615 mmHg 89%
    15:00 +4°C° 0.1 mm 2 mps 615 mmHg 88%
    16:00 +4°C° 0.1 mm 2 mps 615 mmHg 87%
    17:00 +3°C° 0 mm 2 mps 614 mmHg 90%
    18:00 +2°C° 0 mm 2 mps 614 mmHg 92%
    19:00 +2°C° 0 mm 1 mps 614 mmHg 94%
    20:00 +2°C° 0 mm 1 mps 614 mmHg 94%
    21:00 +1°C° 0 mm 1 mps 614 mmHg 95%
    22:00 0°C° 0 mm 1 mps 614 mmHg 95%
    23:00 0°C° 0 mm 1 mps 614 mmHg 94%
    Show more